owner,sensor,date,latitude,longitude,vertical_datum,wind_speed,wind_to_direction,wind_speed_of_gust,qcFlag 
TCOON,ioos:station:TCOON:006:1,2014-01-01T00:00:00Z,27.8217,-97.2040,0.0,1.1,338.0,2.4,'11111222,11111222,11111222' 
TCOON,ioos:station:TCOON:006:1,2014-01-01T00:06:00Z,27.8217,-97.2040,0.0,1.1,338.0,2.4,'1111122,1111122,1111122' 
TCOON,ioos:station:TCOON:006:1,2014-01-01T00:12:00Z,27.8217,-97.2040,0.0,0.7,341.0,3.4,'11111222,11111222,11111222' 
TCOON,ioos:station:TCOON:006:1,2014-01-01T00:18:00Z,27.8217,-97.2040,0.0,0.9,344.0,2.4,'11111222,11111222,11111222' 
TCOON,ioos:station:TCOON:006:1,2014-01-01T00:24:00Z,27.8217,-97.2040,0.0,1.0,354.0,1.8,'11111222,11111222,11111222' 
TCOON,ioos:station:TCOON:006:1,2014-01-01T00:30:00Z,27.8217,-97.2040,0.0,1.0,352.0,2.2,'11111222,11111222,11111222' 
TCOON,ioos:station:TCOON:006:1,2014-01-01T00:36:00Z,27.8217,-97.2040,0.0,1.0,352.0,2.2,'1111122,1111122,1111122' 
TCOON,ioos:station:TCOON:006:1,2014-01-01T00:42:00Z,27.8217,-97.2040,0.0,0.7,5.0,1.8,'11111222,11111222,11111222' 
TCOON,ioos:station:TCOON:006:1,2014-01-01T00:48:00Z,27.8217,-97.2040,0.0,0.7,352.0,1.8,'11111222,11111222,11111222' 
TCOON,ioos:station:TCOON:006:1,2014-01-01T00:54:00Z,27.8217,-97.2040,0.0,0.8,18.0,2.0,'11111222,11111222,11111222' 
TCOON,ioos:station:TCOON:006:1,2014-01-01T01:00:00Z,27.8217,-97.2040,0.0,1.2,32.0,2.2,'11111222,11111222,11111222' 
TCOON,ioos:station:TCOON:006:1,2014-01-01T01:06:00Z,27.8217,-97.2040,0.0,1.2,32.0,2.2,'1111122,1111122,1111122' 
TCOON,ioos:station:TCOON:006:1,2014-01-01T01:12:00Z,27.8217,-97.2040,0.0,1.8,34.0,2.6,'11111222,11111222,11111222' 
TCOON,ioos:station:TCOON:006:1,2014-01-01T01:18:00Z,27.8217,-97.2040,0.0,1.5,41.0,2.2,'11111222,11111222,11111222' 
TCOON,ioos:station:TCOON:006:1,2014-01-01T01:24:00Z,27.8217,-97.2040,0.0,0.8,32.0,2.8,'11111222,11111222,11111222' 
TCOON,ioos:station:TCOON:006:1,2014-01-01T01:30:00Z,27.8217,-97.2040,0.0,0.6,17.0,1.7,'11111222,11111222,11111222' 
TCOON,ioos:station:TCOON:006:1,2014-01-01T01:36:00Z,27.8217,-97.2040,0.0,0.6,17.0,1.7,'1111122,1111122,1111122' 
TCOON,ioos:station:TCOON:006:1,2014-01-01T01:42:00Z,27.8217,-97.2040,0.0,1.1,9.0,1.9,'11111222,11111222,11111222' 
TCOON,ioos:station:TCOON:006:1,2014-01-01T01:48:00Z,27.8217,-97.2040,0.0,0.7,358.0,1.7,'11111222,11111222,11111222' 
TCOON,ioos:station:TCOON:006:1,2014-01-01T01:54:00Z,27.8217,-97.2040,0.0,1.1,337.0,2.0,'11111222,11111222,11111222' 
TCOON,ioos:station:TCOON:006:1,2014-01-01T02:00:00Z,27.8217,-97.2040,0.0,0.6,356.0,2.0,'11111222,11111222,11111222' 
TCOON,ioos:station:TCOON:006:1,2014-01-01T02:06:00Z,27.8217,-97.2040,0.0,0.6,356.0,2.0,'1111122,1111122,1111122' 
TCOON,ioos:station:TCOON:006:1,2014-01-01T02:12:00Z,27.8217,-97.2040,0.0,0.8,343.0,1.4,'11111222,11111222,11111222' 
TCOON,ioos:station:TCOON:006:1,2014-01-01T02:18:00Z,27.8217,-97.2040,0.0,1.2,334.0,1.6,'11111222,11111222,11111222' 
TCOON,ioos:station:TCOON:006:1,2014-01-01T02:24:00Z,27.8217,-97.2040,0.0,1.5,336.0,2.4,'11111222,11111222,11111222' 
TCOON,ioos:station:TCOON:006:1,2014-01-01T02:30:00Z,27.8217,-97.2040,0.0,1.1,28.0,2.2,'11111222,11111222,11111222' 
TCOON,ioos:station:TCOON:006:1,2014-01-01T02:36:00Z,27.8217,-97.2040,0.0,1.1,28.0,2.2,'1111122,1111122,1111122' 
TCOON,ioos:station:TCOON:006:1,2014-01-01T02:42:00Z,27.8217,-97.2040,0.0,1.2,46.0,1.8,'11111222,11111222,11111222' 
TCOON,ioos:station:TCOON:006:1,2014-01-01T02:48:00Z,27.8217,-97.2040,0.0,0.5,21.0,1.7,'11111222,11111222,11111222' 
TCOON,ioos:station:TCOON:006:1,2014-01-01T02:54:00Z,27.8217,-97.2040,0.0,1.3,48.0,1.7,'11111222,11111222,11111222' 
TCOON,ioos:station:TCOON:006:1,2014-01-01T03:00:00Z,27.8217,-97.2040,0.0,1.3,48.0,1.7,'1111122,1111122,1111122' 
TCOON,ioos:station:TCOON:006:1,2014-01-01T03:06:00Z,27.8217,-97.2040,0.0,1.3,40.0,2.1,'11111222,11111222,11111222' 
TCOON,ioos:station:TCOON:006:1,2014-01-01T03:12:00Z,27.8217,-97.2040,0.0,0.9,29.0,1.7,'11111222,11111222,11111222' 
TCOON,ioos:station:TCOON:006:1,2014-01-01T03:18:00Z,27.8217,-97.2040,0.0,1.2,33.0,1.9,'11111222,11111222,11111222' 
TCOON,ioos:station:TCOON:006:1,2014-01-01T03:24:00Z,27.8217,-97.2040,0.0,0.5,355.0,1.9,'11111222,11111222,11111222' 
TCOON,ioos:station:TCOON:006:1,2014-01-01T03:30:00Z,27.8217,-97.2040,0.0,0.3,7.0,1.0,'11111222,11111222,11111222' 
TCOON,ioos:station:TCOON:006:1,2014-01-01T03:36:00Z,27.8217,-97.2040,0.0,0.3,7.0,1.0,'1111122,1111122,1111122' 
TCOON,ioos:station:TCOON:006:1,2014-01-01T03:42:00Z,27.8217,-97.2040,0.0,1.4,43.0,1.8,'11111222,11111222,11111222' 
TCOON,ioos:station:TCOON:006:1,2014-01-01T03:48:00Z,27.8217,-97.2040,0.0,0.8,356.0,1.8,'11111222,11111222,11111222' 
TCOON,ioos:station:TCOON:006:1,2014-01-01T03:54:00Z,27.8217,-97.2040,0.0,0.6,355.0,1.0,'11111222,11111222,11111222' 
TCOON,ioos:station:TCOON:006:1,2014-01-01T04:00:00Z,27.8217,-97.2040,0.0,0.6,356.0,1.2,'11111222,11111222,11111222' 
TCOON,ioos:station:TCOON:006:1,2014-01-01T04:06:00Z,27.8217,-97.2040,0.0,0.6,356.0,1.2,'1111122,1111122,1111122' 
TCOON,ioos:station:TCOON:006:1,2014-01-01T04:12:00Z,27.8217,-97.2040,0.0,0.8,342.0,1.3,'11111222,11111222,11111222' 
TCOON,ioos:station:TCOON:006:1,2014-01-01T04:18:00Z,27.8217,-97.2040,0.0,0.9,329.0,1.1,'11111222,11111222,11111222' 
TCOON,ioos:station:TCOON:006:1,2014-01-01T04:24:00Z,27.8217,-97.2040,0.0,0.6,331.0,1.1,'11111222,11111222,11111222' 
TCOON,ioos:station:TCOON:006:1,2014-01-01T04:30:00Z,27.8217,-97.2040,0.0,1.2,324.0,1.7,'11111222,11111222,11111222' 
TCOON,ioos:station:TCOON:006:1,2014-01-01T04:36:00Z,27.8217,-97.2040,0.0,1.2,324.0,1.7,'1111122,1111122,1111122' 
TCOON,ioos:station:TCOON:006:1,2014-01-01T04:42:00Z,27.8217,-97.2040,0.0,1.2,336.0,1.7,'11111222,11111222,11111222' 
TCOON,ioos:station:TCOON:006:1,2014-01-01T04:48:00Z,27.8217,-97.2040,0.0,1.0,338.0,2.1,'11111222,11111222,11111222' 
TCOON,ioos:station:TCOON:006:1,2014-01-01T04:54:00Z,27.8217,-97.2040,0.0,1.2,334.0,1.6,'11111222,11111222,11111222' 
TCOON,ioos:station:TCOON:006:1,2014-01-01T05:00:00Z,27.8217,-97.2040,0.0,1.1,332.0,1.9,'11111222,11111222,11111222' 
TCOON,ioos:station:TCOON:006:1,2014-01-01T05:06:00Z,27.8217,-97.2040,0.0,1.1,332.0,1.9,'1111122,1111122,1111122' 
TCOON,ioos:station:TCOON:006:1,2014-01-01T05:12:00Z,27.8217,-97.2040,0.0,1.0,337.0,1.6,'11111222,11111222,11111222' 
TCOON,ioos:station:TCOON:006:1,2014-01-01T05:18:00Z,27.8217,-97.2040,0.0,0.3,28.0,1.1,'11111222,11111222,11111222' 
TCOON,ioos:station:TCOON:006:1,2014-01-01T05:24:00Z,27.8217,-97.2040,0.0,0.4,28.0,0.7,'11111222,11111222,11111222' 
TCOON,ioos:station:TCOON:006:1,2014-01-01T05:30:00Z,27.8217,-97.2040,0.0,0.7,325.0,0.9,'11111222,11111222,11111222' 
TCOON,ioos:station:TCOON:006:1,2014-01-01T05:36:00Z,27.8217,-97.2040,0.0,0.7,325.0,0.9,'1111122,1111122,1111122' 
TCOON,ioos:station:TCOON:006:1,2014-01-01T05:42:00Z,27.8217,-97.2040,0.0,0.6,352.0,1.0,'11111222,11111222,11111222' 
TCOON,ioos:station:TCOON:006:1,2014-01-01T05:48:00Z,27.8217,-97.2040,0.0,0.8,353.0,1.5,'11111222,11111222,11111222' 
TCOON,ioos:station:TCOON:006:1,2014-01-01T05:54:00Z,27.8217,-97.2040,0.0,1.3,344.0,1.9,'11111222,11111222,11111222' 
TCOON,ioos:station:TCOON:006:1,2014-01-01T06:00:00Z,27.8217,-97.2040,0.0,1.2,350.0,1.8,'11111222,11111222,11111222' 
TCOON,ioos:station:TCOON:006:1,2014-01-01T06:06:00Z,27.8217,-97.2040,0.0,1.2,350.0,1.8,'1111122,1111122,1111122' 
TCOON,ioos:station:TCOON:006:1,2014-01-01T06:12:00Z,27.8217,-97.2040,0.0,1.1,343.0,1.8,'11111222,11111222,11111222' 
TCOON,ioos:station:TCOON:006:1,2014-01-01T06:18:00Z,27.8217,-97.2040,0.0,1.1,333.0,1.8,'11111222,11111222,11111222' 
TCOON,ioos:station:TCOON:006:1,2014-01-01T06:24:00Z,27.8217,-97.2040,0.0,1.5,333.0,2.0,'11111222,11111222,11111222' 
TCOON,ioos:station:TCOON:006:1,2014-01-01T06:30:00Z,27.8217,-97.2040,0.0,1.3,342.0,2.3,'11111222,11111222,11111222' 
TCOON,ioos:station:TCOON:006:1,2014-01-01T06:36:00Z,27.8217,-97.2040,0.0,1.3,342.0,2.3,'1111122,1111122,1111122' 
TCOON,ioos:station:TCOON:006:1,2014-01-01T06:42:00Z,27.8217,-97.2040,0.0,1.5,343.0,2.8,'11111222,11111222,11111222' 
TCOON,ioos:station:TCOON:006:1,2014-01-01T06:48:00Z,27.8217,-97.2040,0.0,1.1,347.0,2.4,'11111222,11111222,11111222' 
TCOON,ioos:station:TCOON:006:1,2014-01-01T06:54:00Z,27.8217,-97.2040,0.0,1.4,344.0,2.1,'11111222,11111222,11111222' 
TCOON,ioos:station:TCOON:006:1,2014-01-01T07:00:00Z,27.8217,-97.2040,0.0,1.6,325.0,2.3,'11111222,11111222,11111222' 
TCOON,ioos:station:TCOON:006:1,2014-01-01T07:06:00Z,27.8217,-97.2040,0.0,1.6,325.0,2.3,'1111122,1111122,1111122' 
TCOON,ioos:station:TCOON:006:1,2014-01-01T07:12:00Z,27.8217,-97.2040,0.0,1.2,316.0,2.1,'11111222,11111222,11111222' 
TCOON,ioos:station:TCOON:006:1,2014-01-01T07:18:00Z,27.8217,-97.2040,0.0,1.6,304.0,2.0,'11111222,11111222,11111222' 
TCOON,ioos:station:TCOON:006:1,2014-01-01T07:24:00Z,27.8217,-97.2040,0.0,1.4,316.0,1.8,'11111222,11111222,11111222' 
TCOON,ioos:station:TCOON:006:1,2014-01-01T07:30:00Z,27.8217,-97.2040,0.0,1.6,329.0,2.4,'11111222,11111222,11111222' 
TCOON,ioos:station:TCOON:006:1,2014-01-01T07:36:00Z,27.8217,-97.2040,0.0,1.6,329.0,2.4,'1111122,1111122,1111122' 
TCOON,ioos:station:TCOON:006:1,2014-01-01T07:42:00Z,27.8217,-97.2040,0.0,1.5,333.0,2.4,'11111222,11111222,11111222' 
TCOON,ioos:station:TCOON:006:1,2014-01-01T07:48:00Z,27.8217,-97.2040,0.0,2.1,327.0,2.6,'11111222,11111222,11111222' 
TCOON,ioos:station:TCOON:006:1,2014-01-01T07:54:00Z,27.8217,-97.2040,0.0,2.8,324.0,3.6,'11111222,11111222,11111222' 
TCOON,ioos:station:TCOON:006:1,2014-01-01T08:00:00Z,27.8217,-97.2040,0.0,2.4,322.0,3.6,'11111222,11111222,11111222' 
TCOON,ioos:station:TCOON:006:1,2014-01-01T08:06:00Z,27.8217,-97.2040,0.0,2.4,322.0,3.6,'1111122,1111122,1111122' 
TCOON,ioos:station:TCOON:006:1,2014-01-01T08:12:00Z,27.8217,-97.2040,0.0,2.8,323.0,3.9,'11111222,11111222,11111222' 
TCOON,ioos:station:TCOON:006:1,2014-01-01T08:18:00Z,27.8217,-97.2040,0.0,2.8,324.0,3.8,'11111222,11111222,11111222' 
TCOON,ioos:station:TCOON:006:1,2014-01-01T08:24:00Z,27.8217,-97.2040,0.0,1.9,327.0,3.5,'11111222,11111222,11111222' 
TCOON,ioos:station:TCOON:006:1,2014-01-01T08:30:00Z,27.8217,-97.2040,0.0,2.1,321.0,3.1,'11111222,11111222,11111222' 
TCOON,ioos:station:TCOON:006:1,2014-01-01T08:36:00Z,27.8217,-97.2040,0.0,2.1,321.0,3.1,'1111122,1111122,1111122' 
TCOON,ioos:station:TCOON:006:1,2014-01-01T08:42:00Z,27.8217,-97.2040,0.0,2.3,318.0,3.2,'11111222,11111222,11111222' 
TCOON,ioos:station:TCOON:006:1,2014-01-01T08:48:00Z,27.8217,-97.2040,0.0,2.2,322.0,3.2,'11111222,11111222,11111222' 
TCOON,ioos:station:TCOON:006:1,2014-01-01T08:54:00Z,27.8217,-97.2040,0.0,1.4,329.0,2.6,'11111222,11111222,11111222' 
TCOON,ioos:station:TCOON:006:1,2014-01-01T09:00:00Z,27.8217,-97.2040,0.0,1.8,328.0,2.6,'11111222,11111222,11111222' 
TCOON,ioos:station:TCOON:006:1,2014-01-01T09:06:00Z,27.8217,-97.2040,0.0,1.8,328.0,2.6,'1111122,1111122,1111122' 
TCOON,ioos:station:TCOON:006:1,2014-01-01T09:12:00Z,27.8217,-97.2040,0.0,2.3,325.0,2.9,'11111222,11111222,11111222' 
TCOON,ioos:station:TCOON:006:1,2014-01-01T09:18:00Z,27.8217,-97.2040,0.0,2.1,330.0,3.4,'11111222,11111222,11111222' 
TCOON,ioos:station:TCOON:006:1,2014-01-01T09:24:00Z,27.8217,-97.2040,0.0,3.1,323.0,3.8,'11111222,11111222,11111222' 
TCOON,ioos:station:TCOON:006:1,2014-01-01T09:30:00Z,27.8217,-97.2040,0.0,2.1,327.0,3.7,'11111222,11111222,11111222' 
TCOON,ioos:station:TCOON:006:1,2014-01-01T09:36:00Z,27.8217,-97.2040,0.0,2.1,327.0,3.7,'1111122,1111122,1111122' 
TCOON,ioos:station:TCOON:006:1,2014-01-01T09:42:00Z,27.8217,-97.2040,0.0,1.4,342.0,2.9,'11111222,11111222,11111222' 
TCOON,ioos:station:TCOON:006:1,2014-01-01T09:48:00Z,27.8217,-97.2040,0.0,2.5,322.0,3.5,'11111222,11111222,11111222' 
TCOON,ioos:station:TCOON:006:1,2014-01-01T09:54:00Z,27.8217,-97.2040,0.0,2.5,323.0,3.6,'11111222,11111222,11111222' 
TCOON,ioos:station:TCOON:006:1,2014-01-01T10:00:00Z,27.8217,-97.2040,0.0,1.4,334.0,2.9,'11111222,11111222,11111222' 
TCOON,ioos:station:TCOON:006:1,2014-01-01T10:06:00Z,27.8217,-97.2040,0.0,1.4,334.0,2.9,'1111122,1111122,1111122' 
TCOON,ioos:station:TCOON:006:1,2014-01-01T10:12:00Z,27.8217,-97.2040,0.0,2.1,329.0,3.6,'11111222,11111222,11111222' 
TCOON,ioos:station:TCOON:006:1,2014-01-01T10:18:00Z,27.8217,-97.2040,0.0,2.5,337.0,4.1,'11111222,11111222,11111222' 
TCOON,ioos:station:TCOON:006:1,2014-01-01T10:24:00Z,27.8217,-97.2040,0.0,1.6,343.0,4.1,'11111222,11111222,11111222' 
TCOON,ioos:station:TCOON:006:1,2014-01-01T10:30:00Z,27.8217,-97.2040,0.0,1.5,337.0,2.9,'11111222,11111222,11111222' 
TCOON,ioos:station:TCOON:006:1,2014-01-01T10:36:00Z,27.8217,-97.2040,0.0,1.5,337.0,2.9,'1111122,1111122,1111122' 
TCOON,ioos:station:TCOON:006:1,2014-01-01T10:42:00Z,27.8217,-97.2040,0.0,2.0,329.0,3.2,'11111222,11111222,11111222' 
TCOON,ioos:station:TCOON:006:1,2014-01-01T10:48:00Z,27.8217,-97.2040,0.0,1.4,333.0,3.1,'11111222,11111222,11111222' 
TCOON,ioos:station:TCOON:006:1,2014-01-01T10:54:00Z,27.8217,-97.2040,0.0,1.7,333.0,2.4,'11111222,11111222,11111222' 
TCOON,ioos:station:TCOON:006:1,2014-01-01T11:00:00Z,27.8217,-97.2040,0.0,2.0,330.0,3.0,'11111222,11111222,11111222' 
TCOON,ioos:station:TCOON:006:1,2014-01-01T11:06:00Z,27.8217,-97.2040,0.0,2.0,330.0,3.0,'1111122,1111122,1111122' 
TCOON,ioos:station:TCOON:006:1,2014-01-01T11:12:00Z,27.8217,-97.2040,0.0,1.8,341.0,2.8,'11111222,11111222,11111222' 
TCOON,ioos:station:TCOON:006:1,2014-01-01T11:18:00Z,27.8217,-97.2040,0.0,1.9,333.0,3.0,'11111222,11111222,11111222' 
TCOON,ioos:station:TCOON:006:1,2014-01-01T11:24:00Z,27.8217,-97.2040,0.0,3.3,323.0,4.2,'11111222,11111222,11111222' 
TCOON,ioos:station:TCOON:006:1,2014-01-01T11:30:00Z,27.8217,-97.2040,0.0,3.2,323.0,5.0,'11111222,11111222,11111222' 
TCOON,ioos:station:TCOON:006:1,2014-01-01T11:36:00Z,27.8217,-97.2040,0.0,3.2,323.0,5.0,'1111122,1111122,1111122' 
TCOON,ioos:station:TCOON:006:1,2014-01-01T11:42:00Z,27.8217,-97.2040,0.0,2.1,329.0,4.0,'11111222,11111222,11111222' 
TCOON,ioos:station:TCOON:006:1,2014-01-01T11:48:00Z,27.8217,-97.2040,0.0,2.0,327.0,3.5,'11111222,11111222,11111222' 
TCOON,ioos:station:TCOON:006:1,2014-01-01T11:54:00Z,27.8217,-97.2040,0.0,3.0,324.0,3.9,'11111222,11111222,11111222' 
TCOON,ioos:station:TCOON:006:1,2014-01-01T12:00:00Z,27.8217,-97.2040,0.0,2.4,324.0,3.5,'11111222,11111222,11111222' 
TCOON,ioos:station:TCOON:006:1,2014-01-01T12:06:00Z,27.8217,-97.2040,0.0,2.4,324.0,3.5,'1111122,1111122,1111122' 
TCOON,ioos:station:TCOON:006:1,2014-01-01T12:12:00Z,27.8217,-97.2040,0.0,2.7,321.0,3.7,'11111222,11111222,11111222' 
TCOON,ioos:station:TCOON:006:1,2014-01-01T12:18:00Z,27.8217,-97.2040,0.0,2.4,323.0,3.6,'11111222,11111222,11111222' 
TCOON,ioos:station:TCOON:006:1,2014-01-01T12:24:00Z,27.8217,-97.2040,0.0,1.7,327.0,3.6,'11111222,11111222,11111222' 
TCOON,ioos:station:TCOON:006:1,2014-01-01T12:30:00Z,27.8217,-97.2040,0.0,2.3,324.0,3.2,'11111222,11111222,11111222' 
TCOON,ioos:station:TCOON:006:1,2014-01-01T12:36:00Z,27.8217,-97.2040,0.0,2.3,324.0,3.2,'1111122,1111122,1111122' 
TCOON,ioos:station:TCOON:006:1,2014-01-01T12:42:00Z,27.8217,-97.2040,0.0,2.4,323.0,3.7,'11111222,11111222,11111222' 
TCOON,ioos:station:TCOON:006:1,2014-01-01T12:48:00Z,27.8217,-97.2040,0.0,2.7,324.0,3.4,'11111222,11111222,11111222' 
TCOON,ioos:station:TCOON:006:1,2014-01-01T12:54:00Z,27.8217,-97.2040,0.0,2.9,325.0,4.5,'11111222,11111222,11111222' 
TCOON,ioos:station:TCOON:006:1,2014-01-01T13:00:00Z,27.8217,-97.2040,0.0,2.3,325.0,3.8,'11111222,11111222,11111222' 
TCOON,ioos:station:TCOON:006:1,2014-01-01T13:06:00Z,27.8217,-97.2040,0.0,2.3,325.0,3.8,'1111122,1111122,1111122' 
TCOON,ioos:station:TCOON:006:1,2014-01-01T13:12:00Z,27.8217,-97.2040,0.0,2.0,323.0,3.2,'11111222,11111222,11111222' 
TCOON,ioos:station:TCOON:006:1,2014-01-01T13:18:00Z,27.8217,-97.2040,0.0,1.7,328.0,2.4,'11111222,11111222,11111222' 
TCOON,ioos:station:TCOON:006:1,2014-01-01T13:24:00Z,27.8217,-97.2040,0.0,1.3,345.0,2.7,'11111222,11111222,11111222' 
TCOON,ioos:station:TCOON:006:1,2014-01-01T13:30:00Z,27.8217,-97.2040,0.0,0.8,352.0,1.8,'11111222,11111222,11111222' 
TCOON,ioos:station:TCOON:006:1,2014-01-01T13:36:00Z,27.8217,-97.2040,0.0,0.8,352.0,1.8,'1111122,1111122,1111122' 
TCOON,ioos:station:TCOON:006:1,2014-01-01T13:42:00Z,27.8217,-97.2040,0.0,0.9,334.0,2.5,'11111222,11111222,11111222' 
TCOON,ioos:station:TCOON:006:1,2014-01-01T13:48:00Z,27.8217,-97.2040,0.0,1.2,348.0,2.3,'11111222,11111222,11111222' 
TCOON,ioos:station:TCOON:006:1,2014-01-01T13:54:00Z,27.8217,-97.2040,0.0,1.0,351.0,2.4,'11111222,11111222,11111222' 
TCOON,ioos:station:TCOON:006:1,2014-01-01T14:00:00Z,27.8217,-97.2040,0.0,1.8,346.0,3.6,'11111222,11111222,11111222' 
TCOON,ioos:station:TCOON:006:1,2014-01-01T14:06:00Z,27.8217,-97.2040,0.0,1.8,346.0,3.6,'1111122,1111122,1111122' 
TCOON,ioos:station:TCOON:006:1,2014-01-01T14:12:00Z,27.8217,-97.2040,0.0,1.6,339.0,3.3,'11111222,11111222,11111222' 
TCOON,ioos:station:TCOON:006:1,2014-01-01T14:18:00Z,27.8217,-97.2040,0.0,1.7,337.0,3.3,'11111222,11111222,11111222' 
TCOON,ioos:station:TCOON:006:1,2014-01-01T14:24:00Z,27.8217,-97.2040,0.0,1.2,338.0,2.3,'11111222,11111222,11111222' 
TCOON,ioos:station:TCOON:006:1,2014-01-01T14:30:00Z,27.8217,-97.2040,0.0,1.1,336.0,2.0,'11111222,11111222,11111222' 
TCOON,ioos:station:TCOON:006:1,2014-01-01T14:36:00Z,27.8217,-97.2040,0.0,1.1,336.0,2.0,'1111122,1111122,1111122' 
TCOON,ioos:station:TCOON:006:1,2014-01-01T14:42:00Z,27.8217,-97.2040,0.0,1.1,338.0,2.5,'11111222,11111222,11111222' 
TCOON,ioos:station:TCOON:006:1,2014-01-01T14:48:00Z,27.8217,-97.2040,0.0,1.0,338.0,1.8,'11111222,11111222,11111222' 
TCOON,ioos:station:TCOON:006:1,2014-01-01T14:54:00Z,27.8217,-97.2040,0.0,0.9,352.0,2.4,'11111222,11111222,11111222' 
TCOON,ioos:station:TCOON:006:1,2014-01-01T15:00:00Z,27.8217,-97.2040,0.0,1.6,342.0,3.1,'11111222,11111222,11111222' 
TCOON,ioos:station:TCOON:006:1,2014-01-01T15:06:00Z,27.8217,-97.2040,0.0,1.6,342.0,3.1,'1111122,1111122,1111122' 
TCOON,ioos:station:TCOON:006:1,2014-01-01T15:12:00Z,27.8217,-97.2040,0.0,1.3,328.0,2.6,'11111222,11111222,11111222' 
TCOON,ioos:station:TCOON:006:1,2014-01-01T15:18:00Z,27.8217,-97.2040,0.0,0.9,345.0,2.8,'11111222,11111222,11111222' 
TCOON,ioos:station:TCOON:006:1,2014-01-01T15:24:00Z,27.8217,-97.2040,0.0,0.6,354.0,2.7,'11111222,11111222,11111222' 
TCOON,ioos:station:TCOON:006:1,2014-01-01T15:30:00Z,27.8217,-97.2040,0.0,1.9,333.0,3.0,'11111222,11111222,11111222' 
TCOON,ioos:station:TCOON:006:1,2014-01-01T15:36:00Z,27.8217,-97.2040,0.0,1.9,333.0,3.0,'1111122,1111122,1111122' 
TCOON,ioos:station:TCOON:006:1,2014-01-01T15:42:00Z,27.8217,-97.2040,0.0,0.6,352.0,1.6,'11111222,11111222,11111222' 
TCOON,ioos:station:TCOON:006:1,2014-01-01T15:48:00Z,27.8217,-97.2040,0.0,1.2,354.0,2.0,'11111222,11111222,11111222' 
TCOON,ioos:station:TCOON:006:1,2014-01-01T15:54:00Z,27.8217,-97.2040,0.0,1.2,10.0,2.4,'11111222,11111222,11111222' 
TCOON,ioos:station:TCOON:006:1,2014-01-01T16:00:00Z,27.8217,-97.2040,0.0,0.9,7.0,2.4,'11111222,11111222,11111222' 
TCOON,ioos:station:TCOON:006:1,2014-01-01T16:06:00Z,27.8217,-97.2040,0.0,0.9,7.0,2.4,'1111122,1111122,1111122' 
TCOON,ioos:station:TCOON:006:1,2014-01-01T16:12:00Z,27.8217,-97.2040,0.0,1.2,338.0,2.5,'11111222,11111222,11111222' 
TCOON,ioos:station:TCOON:006:1,2014-01-01T16:18:00Z,27.8217,-97.2040,0.0,0.7,354.0,1.8,'11111222,11111222,11111222' 
TCOON,ioos:station:TCOON:006:1,2014-01-01T16:24:00Z,27.8217,-97.2040,0.0,1.2,336.0,2.2,'11111222,11111222,11111222' 
TCOON,ioos:station:TCOON:006:1,2014-01-01T16:30:00Z,27.8217,-97.2040,0.0,0.9,343.0,2.1,'11111222,11111222,11111222' 
TCOON,ioos:station:TCOON:006:1,2014-01-01T16:36:00Z,27.8217,-97.2040,0.0,0.9,343.0,2.1,'1111122,1111122,1111122' 
TCOON,ioos:station:TCOON:006:1,2014-01-01T16:42:00Z,27.8217,-97.2040,0.0,1.1,323.0,1.9,'11111222,11111222,11111222' 
TCOON,ioos:station:TCOON:006:1,2014-01-01T16:48:00Z,27.8217,-97.2040,0.0,1.2,328.0,2.5,'11111222,11111222,11111222' 
TCOON,ioos:station:TCOON:006:1,2014-01-01T16:54:00Z,27.8217,-97.2040,0.0,1.3,327.0,2.1,'11111222,11111222,11111222' 
TCOON,ioos:station:TCOON:006:1,2014-01-01T17:00:00Z,27.8217,-97.2040,0.0,1.8,324.0,2.7,'11111222,11111222,11111222' 
TCOON,ioos:station:TCOON:006:1,2014-01-01T17:06:00Z,27.8217,-97.2040,0.0,1.8,324.0,2.7,'1111122,1111122,1111122' 
TCOON,ioos:station:TCOON:006:1,2014-01-01T17:12:00Z,27.8217,-97.2040,0.0,1.9,323.0,2.7,'11111222,11111222,11111222' 
TCOON,ioos:station:TCOON:006:1,2014-01-01T17:18:00Z,27.8217,-97.2040,0.0,0.8,328.0,2.1,'11111222,11111222,11111222' 
TCOON,ioos:station:TCOON:006:1,2014-01-01T17:24:00Z,27.8217,-97.2040,0.0,1.1,314.0,1.7,'11111222,11111222,11111222' 
TCOON,ioos:station:TCOON:006:1,2014-01-01T17:30:00Z,27.8217,-97.2040,0.0,0.9,313.0,1.8,'11111222,11111222,11111222' 
TCOON,ioos:station:TCOON:006:1,2014-01-01T17:36:00Z,27.8217,-97.2040,0.0,0.9,313.0,1.8,'1111122,1111122,1111122' 
TCOON,ioos:station:TCOON:006:1,2014-01-01T17:42:00Z,27.8217,-97.2040,0.0,1.0,288.0,1.6,'11111222,11111222,11111222' 
TCOON,ioos:station:TCOON:006:1,2014-01-01T17:48:00Z,27.8217,-97.2040,0.0,1.6,310.0,2.1,'11111222,11111222,11111222' 
TCOON,ioos:station:TCOON:006:1,2014-01-01T17:54:00Z,27.8217,-97.2040,0.0,1.4,297.0,1.7,'11111222,11111222,11111222' 
TCOON,ioos:station:TCOON:006:1,2014-01-01T18:00:00Z,27.8217,-97.2040,0.0,1.5,306.0,2.2,'11111222,11111222,11111222' 
TCOON,ioos:station:TCOON:006:1,2014-01-01T18:06:00Z,27.8217,-97.2040,0.0,1.5,306.0,2.2,'1111122,1111122,1111122' 
TCOON,ioos:station:TCOON:006:1,2014-01-01T18:12:00Z,27.8217,-97.2040,0.0,0.9,347.0,1.4,'11111222,11111222,11111222' 
TCOON,ioos:station:TCOON:006:1,2014-01-01T18:18:00Z,27.8217,-97.2040,0.0,0.4,336.0,1.4,'11111222,11111222,11111222' 
TCOON,ioos:station:TCOON:006:1,2014-01-01T18:24:00Z,27.8217,-97.2040,0.0,1.0,301.0,1.2,'11111222,11111222,11111222' 
TCOON,ioos:station:TCOON:006:1,2014-01-01T18:30:00Z,27.8217,-97.2040,0.0,1.8,307.0,2.2,'11111222,11111222,11111222' 
TCOON,ioos:station:TCOON:006:1,2014-01-01T18:36:00Z,27.8217,-97.2040,0.0,1.8,307.0,2.2,'1111122,1111122,1111122' 
TCOON,ioos:station:TCOON:006:1,2014-01-01T18:42:00Z,27.8217,-97.2040,0.0,1.7,298.0,2.7,'11111222,11111222,11111222' 
TCOON,ioos:station:TCOON:006:1,2014-01-01T18:48:00Z,27.8217,-97.2040,0.0,1.9,304.0,2.5,'11111222,11111222,11111222' 
TCOON,ioos:station:TCOON:006:1,2014-01-01T18:54:00Z,27.8217,-97.2040,0.0,1.0,327.0,2.1,'11111222,11111222,11111222' 
TCOON,ioos:station:TCOON:006:1,2014-01-01T19:00:00Z,27.8217,-97.2040,0.0,1.4,340.0,1.9,'11111222,11111222,11111222' 
TCOON,ioos:station:TCOON:006:1,2014-01-01T19:06:00Z,27.8217,-97.2040,0.0,1.4,340.0,1.9,'1111122,1111122,1111122' 
TCOON,ioos:station:TCOON:006:1,2014-01-01T19:12:00Z,27.8217,-97.2040,0.0,1.8,283.0,2.3,'11111222,11111222,11111222' 
TCOON,ioos:station:TCOON:006:1,2014-01-01T19:18:00Z,27.8217,-97.2040,0.0,1.4,289.0,2.2,'11111222,11111222,11111222' 
TCOON,ioos:station:TCOON:006:1,2014-01-01T19:24:00Z,27.8217,-97.2040,0.0,1.3,292.0,1.7,'11111222,11111222,11111222' 
TCOON,ioos:station:TCOON:006:1,2014-01-01T19:30:00Z,27.8217,-97.2040,0.0,1.1,292.0,1.5,'11111222,11111222,11111222' 
TCOON,ioos:station:TCOON:006:1,2014-01-01T19:36:00Z,27.8217,-97.2040,0.0,1.1,292.0,1.5,'1111122,1111122,1111122' 
TCOON,ioos:station:TCOON:006:1,2014-01-01T19:42:00Z,27.8217,-97.2040,0.0,2.2,283.0,2.7,'11111222,11111222,11111222' 
TCOON,ioos:station:TCOON:006:1,2014-01-01T19:48:00Z,27.8217,-97.2040,0.0,2.0,295.0,2.5,'11111222,11111222,11111222' 
TCOON,ioos:station:TCOON:006:1,2014-01-01T19:54:00Z,27.8217,-97.2040,0.0,1.8,282.0,2.4,'11111222,11111222,11111222' 
TCOON,ioos:station:TCOON:006:1,2014-01-01T20:00:00Z,27.8217,-97.2040,0.0,2.5,289.0,2.9,'11111222,11111222,11111222' 
TCOON,ioos:station:TCOON:006:1,2014-01-01T20:06:00Z,27.8217,-97.2040,0.0,2.5,289.0,2.9,'1111122,1111122,1111122' 
TCOON,ioos:station:TCOON:006:1,2014-01-01T20:12:00Z,27.8217,-97.2040,0.0,2.4,274.0,2.9,'11111222,11111222,11111222' 
TCOON,ioos:station:TCOON:006:1,2014-01-01T20:18:00Z,27.8217,-97.2040,0.0,1.4,297.0,2.6,'11111222,11111222,11111222' 
TCOON,ioos:station:TCOON:006:1,2014-01-01T20:24:00Z,27.8217,-97.2040,0.0,1.7,299.0,2.4,'11111222,11111222,11111222' 